This is the latest recevied weather packets stored in our database for station/object DM4XI-13. If no packets are shown the sender has not sent any weather packets the latest 10 day(s).
| Time | Temp. | Humidity | Pressure | Rain* | Wind** | Luminosity | Snow |
|---|---|---|---|---|---|---|---|
| 1777621495 | 13.89° C | 44% | 1026.3 hPa | 0 mm | 0 m/s | 380 W/m² | - |
| 1777621434 | 13.33° C | 42% | 1026.4 hPa | 0 mm | 0 m/s | 377 W/m² | - |
| 1777621373 | 13.33° C | 42% | 1026.4 hPa | 0 mm | 0.89 m/s, 339° | 376 W/m² | - |
| 1777621312 | 13.33° C | 44% | 1026.4 hPa | 0 mm | 0.45 m/s, 185° | 373 W/m² | - |
| 1777621251 | 13.33° C | 43% | 1026.4 hPa | 0 mm | 1.34 m/s, 344° | 372 W/m² | - |
| 1777621190 | 13.33° C | 42% | 1026.4 hPa | 0 mm | 0.89 m/s, 139° | 364 W/m² | - |
| 1777621129 | 13.33° C | 45% | 1026.3 hPa | 0 mm | 0 m/s | 104 W/m² | - |
| 1777621068 | 13.33° C | 43% | 1026.3 hPa | 0 mm | 0.45 m/s, 163° | 365 W/m² | - |
| 1777621007 | 13.33° C | 45% | 1026.1 hPa | 0 mm | 0.89 m/s, 176° | 362 W/m² | - |
| 1777620946 | 13.33° C | 43% | 1026.2 hPa | 0 mm | 0 m/s | 359 W/m² | - |
| 1777620885 | 13.33° C | 42% | 1026.3 hPa | 0 mm | 0.45 m/s, 140° | 357 W/m² | - |
| 1777620824 | 13.33° C | 42% | 1026.2 hPa | 0 mm | 0 m/s | 357 W/m² | - |
| 1777620763 | 12.78° C | 43% | 1026.2 hPa | 0 mm | 0.45 m/s, 128° | 211 W/m² | - |
| 1777620702 | 12.78° C | 43% | 1026.2 hPa | 0 mm | 0 m/s | 352 W/m² | - |
| 1777620641 | 12.78° C | 44% | 1026.3 hPa | 0 mm | 0 m/s | 349 W/m² | - |
| 1777620580 | 12.78° C | 43% | 1026.2 hPa | 0 mm | 0.45 m/s, 130° | 347 W/m² | - |
| 1777620519 | 12.78° C | 44% | 1026.2 hPa | 0 mm | 0 m/s | 344 W/m² | - |
| 1777620458 | 12.22° C | 44% | 1026.1 hPa | 0 mm | 0.89 m/s, 181° | 342 W/m² | - |
| 1777620397 | 12.22° C | 44% | 1026.2 hPa | 0 mm | 0.89 m/s, 132° | 341 W/m² | - |
| 1777620336 | 12.22° C | 45% | 1026.2 hPa | 0 mm | 0.45 m/s, 171° | 337 W/m² | - |
| 1777620275 | 12.22° C | 45% | 1026.3 hPa | 0 mm | 0.89 m/s, 149° | 87 W/m² | - |
| 1777620214 | 12.22° C | 44% | 1026.3 hPa | 0 mm | 0.89 m/s, 154° | 245 W/m² | - |
| 1777620153 | 12.22° C | 44% | 1026.2 hPa | 0 mm | 0.45 m/s, 146° | 257 W/m² | - |
| 1777620092 | 12.78° C | 45% | 1026.1 hPa | 0 mm | 0 m/s | 329 W/m² | - |
| 1777620031 | 12.78° C | 43% | 1026.3 hPa | 0 mm | 0.89 m/s, 134° | 327 W/m² | - |
* Rain latest hour (hover to see other rain measurements)
** Current wind speed in m/s (hover to see current wind gust speed)